Date,Time,Wetness (Wet Dry or Ice),Wind Speed (m/s),Temperature (C),Humidity (%),Pressure (mb),Radiation (W/m^2)
2020-09-16,01:55:00,DRY,3.65,11.10,78.0,779.00,1.1
2020-09-16,02:00:00,DRY,2.60,11.00,78.7,779.00,1.3
2020-09-16,02:05:00,DRY,2.25,11.15,77.0,779.00,2.1
2020-09-16,02:10:00,DRY,2.80,11.43,75.3,779.00,1.2
2020-09-16,02:15:00,DRY,3.70,11.25,76.5,779.00,0.9
2020-09-16,02:20:00,DRY,1.83,11.07,78.0,779.00,1.2
2020-09-16,02:25:00,DRY,3.15,11.05,78.0,779.00,1.4
2020-09-16,02:30:00,DRY,3.23,10.97,78.3,779.00,0.9
2020-09-16,02:35:00,DRY,3.65,10.80,80.0,778.50,0.9
2020-09-16,02:40:00,DRY,2.33,10.90,79.7,778.00,1.4
2020-09-16,02:45:00,DRY,1.75,10.80,80.5,778.00,1.1
2020-09-16,02:50:00,DRY,2.53,10.90,80.0,778.00,0.5
2020-09-16,02:55:00,DRY,3.80,11.00,79.0,778.00,0.9
2020-09-16,03:00:00,DRY,2.97,10.87,80.7,778.00,1.4
2020-09-16,03:05:00,DRY,3.10,11.05,80.0,778.00,1.1
2020-09-16,03:10:00,DRY,3.27,11.23,77.7,778.00,0.9
2020-09-16,03:15:00,DRY,2.75,11.50,76.0,778.00,0.9
2020-09-16,03:20:00,DRY,2.70,11.17,78.7,778.00,1.2
2020-09-16,03:25:00,DRY,2.25,11.05,79.5,778.00,2.0
2020-09-16,03:30:00,DRY,2.10,11.27,77.7,778.00,0.6
2020-09-16,03:35:00,DRY,2.75,11.40,77.5,778.00,1.0
2020-09-16,03:40:00,DRY,2.27,11.37,77.7,778.00,2.0
2020-09-16,03:45:00,WET,2.80,11.45,77.5,778.00,0.7
2020-09-16,03:50:00,WET,3.13,11.30,78.7,778.00,1.2
2020-09-16,03:55:00,DRY,3.85,11.30,78.5,778.00,1.1
2020-09-16,04:00:00,DRY,3.33,11.43,77.7,778.00,1.2
2020-09-16,04:05:00,DRY,2.90,11.30,78.5,778.00,1.2
2020-09-16,04:10:00,DRY,2.57,11.13,80.0,778.00,1.0
2020-09-16,04:15:00,DRY,3.10,11.40,78.5,778.00,1.2
2020-09-16,04:20:00,DRY,3.17,11.60,76.3,778.00,0.5
2020-09-16,04:25:00,WET,2.75,11.70,76.0,778.00,0.9
2020-09-16,04:30:00,DRY,2.43,11.77,73.3,778.00,0.9
2020-09-16,04:35:00,WET,1.85,14.95,51.5,778.00,1.3
2020-09-16,04:40:00,WET,1.13,15.50,50.3,778.00,0.9
2020-09-16,04:45:00,DRY,1.25,14.25,60.0,778.00,2.2
2020-09-16,04:50:00,DRY,1.97,13.33,63.0,778.00,0.9
2020-09-16,04:55:00,DRY,1.65,13.85,59.5,778.00,0.6
2020-09-16,05:00:00,WET,2.20,13.77,60.0,778.00,1.2
2020-09-16,05:05:00,WET,0.80,13.80,59.0,778.00,1.8
2020-09-16,05:10:00,DRY,1.33,14.30,57.7,778.00,0.9
2020-09-16,05:15:00,DRY,1.40,14.40,57.0,778.00,0.5
2020-09-16,05:20:00,DRY,2.70,14.50,56.7,778.00,1.3
2020-09-16,05:25:00,DRY,2.15,12.65,71.0,778.00,1.4
2020-09-16,05:30:00,WET,3.43,11.67,77.0,778.00,1.1
2020-09-16,05:35:00,WET,4.55,11.60,78.5,778.00,1.3
2020-09-16,05:40:00,WET,3.27,11.60,78.0,778.00,1.9
2020-09-16,05:45:00,WET,2.30,11.60,77.0,778.00,0.2
2020-09-16,05:50:00,DRY,2.47,13.63,61.0,778.00,1.4
2020-09-16,05:55:00,DRY,3.70,14.50,54.0,778.00,1.0
2020-09-16,06:00:00,DRY,5.97,15.53,48.7,778.00,1.2
2020-09-16,06:05:00,DRY,5.95,16.05,46.0,778.00,0.7
2020-09-16,06:10:00,DRY,4.43,15.83,47.3,778.00,0.8
2020-09-16,06:15:00,DRY,3.65,15.60,49.0,778.00,1.1
2020-09-16,06:20:00,WET,4.60,14.60,55.7,778.33,1.0
2020-09-16,06:25:00,WET,3.40,13.80,60.0,778.00,1.4
2020-09-16,06:30:00,WET,3.63,14.20,58.0,778.00,1.4
2020-09-16,06:35:00,DRY,2.70,15.10,52.0,778.00,1.4
2020-09-16,06:40:00,DRY,2.10,15.17,51.0,778.00,1.4
2020-09-16,06:45:00,DRY,4.75,15.70,47.5,778.00,1.4
2020-09-16,06:50:00,DRY,5.80,16.23,45.3,778.00,1.3
2020-09-16,06:55:00,DRY,4.00,15.45,50.0,778.00,1.8
2020-09-16,07:00:00,DRY,5.00,15.50,48.3,778.00,2.7
2020-09-16,07:05:00,DRY,2.30,15.15,51.5,778.00,3.6
2020-09-16,07:10:00,DRY,1.87,14.43,55.7,778.00,4.1
2020-09-16,07:15:00,DRY,2.20,14.45,54.0,778.00,5.6
2020-09-16,07:20:00,DRY,3.40,15.20,50.0,778.00,8.6
2020-09-16,07:25:00,DRY,4.15,15.25,50.0,778.00,15.2
2020-09-16,07:30:00,DRY,4.17,15.50,49.3,778.00,26.2
2020-09-16,07:35:00,DRY,4.40,15.40,49.0,778.00,35.3
2020-09-16,07:40:00,DRY,3.77,15.33,50.3,779.00,43.1
2020-09-16,07:45:00,DRY,4.50,15.05,51.5,778.50,40.5
2020-09-16,07:50:00,DRY,4.60,15.03,52.0,779.00,43.3
2020-09-16,07:55:00,DRY,3.95,15.00,52.0,779.00,51.7
2020-09-16,08:00:00,DRY,3.97,15.00,52.0,779.00,58.9
2020-09-16,08:05:00,DRY,3.85,15.05,52.0,778.50,57.0
2020-09-16,08:10:00,DRY,4.23,15.00,52.0,778.33,58.6
2020-09-16,08:15:00,DRY,4.10,15.00,52.5,779.00,57.2
2020-09-16,08:20:00,DRY,3.40,15.00,52.0,779.00,56.2
2020-09-16,08:25:00,DRY,4.30,14.95,53.0,779.00,63.7
2020-09-16,08:30:00,DRY,4.93,14.87,53.7,779.00,68.9
2020-09-16,08:35:00,WET,4.30,14.75,54.5,779.00,79.3
2020-09-16,08:40:00,DRY,3.67,14.70,55.3,779.00,89.1
2020-09-16,08:45:00,DRY,2.80,14.65,56.0,778.50,93.1
2020-09-16,08:50:00,DRY,5.00,14.70,56.0,779.00,111.6
2020-09-16,08:55:00,DRY,3.05,14.80,55.0,779.00,131.4
2020-09-16,09:00:00,DRY,2.97,14.90,54.7,779.00,160.1
2020-09-16,09:05:00,DRY,2.70,14.80,55.5,779.00,178.9
2020-09-16,09:10:00,DRY,3.53,14.93,54.0,779.00,159.9
2020-09-16,09:15:00,DRY,4.30,15.10,54.0,779.00,145.9
2020-09-16,09:20:00,DRY,4.17,15.27,52.7,779.00,199.6
2020-09-16,09:25:00,DRY,2.80,15.45,52.0,779.00,254.0
2020-09-16,09:30:00,DRY,4.97,15.50,52.3,779.00,288.3
2020-09-16,09:35:00,DRY,2.95,15.65,52.0,779.00,288.7
2020-09-16,09:40:00,DRY,3.67,15.73,51.7,779.00,280.1
2020-09-16,09:45:00,DRY,4.70,15.65,52.0,779.00,271.5
2020-09-16,09:50:00,DRY,3.47,15.60,53.0,779.00,271.8
2020-09-16,09:55:00,DRY,3.05,15.25,54.0,779.00,270.2
2020-09-16,10:00:00,DRY,2.93,15.10,55.0,779.00,260.3
2020-09-16,10:05:00,DRY,3.20,15.65,52.5,779.00,266.9
2020-09-16,10:10:00,DRY,2.27,15.73,52.0,779.00,265.4
2020-09-16,10:15:00,DRY,2.95,15.75,52.0,779.00,231.6
2020-09-16,10:20:00,DRY,4.83,15.77,50.7,779.00,152.0
2020-09-16,10:25:00,DRY,4.75,15.85,49.0,779.00,291.4
2020-09-16,10:30:00,DRY,3.77,15.93,49.3,779.00,293.5
2020-09-16,10:35:00,DRY,4.40,16.00,48.5,779.00,358.9
2020-09-16,10:40:00,DRY,5.23,16.03,51.0,779.00,352.8
2020-09-16,10:45:00,DRY,3.85,15.80,54.0,779.00,302.1
2020-09-16,10:50:00,DRY,2.93,15.33,54.7,779.00,424.8
2020-09-16,10:55:00,DRY,2.45,16.05,51.5,779.00,476.2
2020-09-16,11:00:00,DRY,4.43,16.20,49.0,779.00,576.9
2020-09-16,11:05:00,DRY,3.25,16.40,50.5,779.00,586.8
2020-09-16,11:10:00,DRY,2.93,16.53,49.3,779.00,396.2
2020-09-16,11:15:00,DRY,4.65,16.20,50.0,779.00,183.6
2020-09-16,11:20:00,DRY,6.13,15.87,51.0,779.00,376.3
2020-09-16,11:25:00,DRY,4.00,15.90,51.5,779.00,630.6
2020-09-16,11:30:00,DRY,4.33,16.17,49.3,779.00,732.6
2020-09-16,11:35:00,DRY,3.50,16.25,49.5,779.00,732.6
2020-09-16,11:40:00,DRY,4.80,16.77,49.7,779.00,671.0
2020-09-16,11:45:00,DRY,1.25,17.25,51.5,779.00,557.5
2020-09-16,11:50:00,DRY,3.23,16.33,50.7,779.00,474.3
2020-09-16,11:55:00,DRY,2.55,16.00,52.5,779.00,404.4
2020-09-16,12:00:00,DRY,4.00,15.80,54.3,779.00,395.6
2020-09-16,12:05:00,DRY,3.55,15.65,53.0,779.00,430.8
2020-09-16,12:10:00,DRY,3.13,15.73,54.3,779.00,400.2
2020-09-16,12:15:00,DRY,6.55,15.40,54.5,779.00,397.8
2020-09-16,12:20:00,DRY,5.13,15.63,53.0,779.00,428.4
2020-09-16,12:25:00,DRY,4.15,15.45,54.0,779.00,473.5
2020-09-16,12:30:00,DRY,3.90,15.97,52.7,779.00,549.6
2020-09-16,12:35:00,DRY,1.80,15.70,53.0,779.00,491.9
2020-09-16,12:40:00,DRY,4.07,15.60,53.3,779.00,626.0
2020-09-16,12:45:00,DRY,4.75,15.75,53.5,779.00,527.5
2020-09-16,12:50:00,DRY,3.33,15.73,53.7,779.00,628.3
2020-09-16,12:55:00,DRY,3.55,15.80,54.0,779.00,731.0
2020-09-16,13:00:00,DRY,3.37,15.87,53.7,779.00,586.6
2020-09-16,13:05:00,DRY,2.60,15.60,54.5,779.00,446.7
2020-09-16,13:10:00,DRY,2.33,15.47,56.3,778.67,351.2
2020-09-16,13:15:00,DRY,3.50,15.00,57.0,778.00,306.5
2020-09-16,13:20:00,DRY,4.33,14.97,57.7,778.00,395.3
2020-09-16,13:25:00,DRY,3.50,14.80,58.5,778.00,389.2
2020-09-16,13:30:00,DRY,1.90,14.80,58.0,778.00,326.5
2020-09-16,13:35:00,DRY,3.00,15.00,60.0,778.00,333.0
2020-09-16,13:40:00,DRY,2.37,14.63,61.3,778.00,299.0
2020-09-16,13:45:00,DRY,4.10,14.35,62.0,778.00,243.0
2020-09-16,13:50:00,DRY,2.13,14.07,63.3,778.00,275.1
2020-09-16,13:55:00,DRY,3.60,14.15,63.5,778.00,330.1
2020-09-16,14:00:00,DRY,3.57,14.27,62.7,778.00,320.2
2020-09-16,14:05:00,DRY,1.90,14.35,63.0,778.00,322.6
2020-09-16,14:10:00,DRY,2.63,14.03,65.0,778.00,336.3
2020-09-16,14:15:00,WET,2.10,13.85,66.5,778.00,306.7
2020-09-16,14:20:00,DRY,2.93,13.80,68.3,778.00,438.8
2020-09-16,14:25:00,DRY,4.55,13.95,67.0,778.00,519.8
2020-09-16,14:30:00,DRY,3.90,14.13,65.3,778.00,498.8
2020-09-16,14:35:00,DRY,2.55,14.30,64.5,778.00,343.3
2020-09-16,14:40:00,DRY,7.23,14.00,65.0,778.00,305.3
2020-09-16,14:45:00,DRY,3.90,14.00,62.5,777.00,308.7
2020-09-16,14:50:00,DRY,3.37,14.10,63.7,778.00,316.2
2020-09-16,14:55:00,DRY,3.40,14.05,64.0,777.50,307.5
2020-09-16,15:00:00,DRY,3.23,14.03,62.7,777.00,273.7
2020-09-16,15:05:00,DRY,6.35,13.95,65.0,777.00,250.6
2020-09-16,15:10:00,DRY,5.57,13.83,65.3,777.33,254.4
2020-09-16,15:15:00,DRY,6.30,13.65,66.0,777.50,265.8
2020-09-16,15:20:00,WET,3.50,13.53,67.0,778.00,208.9
2020-09-16,15:25:00,DRY,4.90,13.40,68.5,777.50,181.7
2020-09-16,15:30:00,DRY,2.57,13.13,69.3,777.67,156.4
2020-09-16,15:35:00,DRY,3.95,13.00,68.0,777.00,152.8
2020-09-16,15:40:00,DRY,5.47,13.13,67.7,777.00,163.8
2020-09-16,15:45:00,DRY,3.05,13.40,64.5,777.00,193.3
2020-09-16,15:50:00,DRY,3.67,13.67,63.7,777.00,225.6
2020-09-16,15:55:00,DRY,5.75,13.50,64.0,777.00,268.4
2020-09-16,16:00:00,DRY,5.23,13.67,64.0,777.00,345.9
2020-09-16,16:05:00,DRY,4.40,13.80,65.0,777.00,343.4
2020-09-16,16:10:00,DRY,5.27,14.10,61.7,777.33,345.0
2020-09-16,16:15:00,DRY,5.20,13.80,65.5,777.00,313.3
2020-09-16,16:20:00,DRY,5.00,13.83,65.0,777.00,358.7
2020-09-16,16:25:00,DRY,5.85,14.00,62.5,777.50,356.6
2020-09-16,16:30:00,DRY,5.90,13.77,65.0,777.00,380.6
2020-09-16,16:35:00,DRY,5.65,13.90,64.5,777.00,256.9
2020-09-16,16:40:00,DRY,6.77,13.87,64.3,777.00,208.7
2020-09-16,16:45:00,DRY,3.45,13.60,67.0,777.00,193.9
2020-09-16,16:50:00,DRY,6.17,13.40,68.0,777.00,193.0
2020-09-16,16:55:00,DRY,4.60,13.25,68.0,777.00,182.2
2020-09-16,17:00:00,DRY,5.00,13.30,67.3,777.00,148.4
2020-09-16,17:05:00,DRY,6.05,13.15,67.5,777.00,123.7
2020-09-16,17:10:00,DRY,3.67,13.03,68.3,777.00,112.9
2020-09-16,17:15:00,DRY,3.35,13.10,67.0,777.00,103.5
2020-09-16,17:20:00,DRY,4.77,13.00,68.3,777.00,104.3
2020-09-16,17:25:00,DRY,2.65,12.95,68.5,777.00,97.6
2020-09-16,17:30:00,DRY,2.87,13.10,67.0,777.00,83.7
2020-09-16,17:35:00,DRY,3.15,13.10,65.5,777.00,83.1
2020-09-16,17:40:00,DRY,4.33,13.10,66.7,777.00,68.2
2020-09-16,17:45:00,DRY,1.10,13.05,67.0,777.00,47.4
2020-09-16,17:50:00,DRY,2.87,12.93,67.3,777.00,51.2
2020-09-16,17:55:00,DRY,3.60,12.95,68.0,777.00,54.4
2020-09-16,18:00:00,DRY,2.33,12.77,68.3,777.00,56.4
2020-09-16,18:05:00,DRY,2.30,12.85,68.5,777.00,58.3
2020-09-16,18:10:00,DRY,2.47,12.90,67.7,777.00,50.2
2020-09-16,18:15:00,WET,4.30,12.85,68.5,777.00,58.1
2020-09-16,18:20:00,DRY,2.13,12.83,68.0,777.00,56.3
2020-09-16,18:25:00,DRY,2.05,12.40,71.5,777.00,43.6
2020-09-16,18:30:00,DRY,3.77,12.43,70.3,777.00,29.1
2020-09-16,18:35:00,DRY,2.40,12.65,68.5,777.00,19.4
2020-09-16,18:40:00,DRY,6.07,12.63,68.0,777.00,20.8
2020-09-16,18:45:00,DRY,4.45,12.60,68.5,777.00,24.0
2020-09-16,18:50:00,DRY,3.97,12.73,67.0,777.00,23.9
2020-09-16,18:55:00,DRY,3.15,12.75,67.0,777.00,18.5
2020-09-16,19:00:00,DRY,3.07,12.73,67.3,777.00,13.2
2020-09-16,19:05:00,DRY,4.55,12.75,66.5,777.00,9.1
2020-09-16,19:10:00,DRY,3.87,12.87,66.3,777.00,5.3
2020-09-16,19:15:00,DRY,3.50,13.00,65.0,777.00,3.2
2020-09-16,19:20:00,DRY,1.90,13.00,65.0,777.00,1.9
2020-09-16,19:25:00,DRY,3.95,13.20,63.5,777.00,1.1
2020-09-16,19:30:00,DRY,3.10,13.13,64.0,777.00,1.5
2020-09-16,19:35:00,DRY,2.00,13.10,64.0,777.00,0.9
2020-09-16,19:40:00,DRY,4.93,13.10,63.7,777.00,1.3
2020-09-16,19:45:00,DRY,2.95,13.15,63.5,777.00,2.7
2020-09-16,19:50:00,DRY,4.07,13.17,63.7,777.00,1.3
2020-09-16,19:55:00,DRY,4.70,13.05,64.5,777.00,1.6
2020-09-16,20:00:00,DRY,4.03,13.10,64.0,777.00,1.0
2020-09-16,20:05:00,DRY,3.15,13.05,64.5,777.00,1.2
2020-09-16,20:10:00,DRY,2.77,13.03,65.0,777.00,1.6
2020-09-16,20:15:00,DRY,3.95,13.00,65.0,777.00,1.4
2020-09-16,20:20:00,DRY,5.83,13.00,65.0,777.33,1.3
2020-09-16,20:25:00,DRY,6.45,13.00,65.0,777.50,1.4
2020-09-16,20:30:00,DRY,4.37,13.03,64.7,777.33,1.5
2020-09-16,20:35:00,DRY,2.95,13.10,64.5,778.00,2.0
2020-09-16,20:40:00,DRY,6.20,13.07,64.3,778.00,1.8
2020-09-16,20:45:00,DRY,5.85,13.10,64.0,778.00,1.3
2020-09-16,20:50:00,DRY,4.47,13.07,64.3,778.00,1.0
2020-09-16,20:55:00,DRY,5.50,13.20,64.0,778.00,1.4
2020-09-16,21:00:00,DRY,5.70,13.10,64.3,778.00,1.2
2020-09-16,21:05:00,DRY,4.90,13.10,65.0,778.00,1.2
2020-09-16,21:10:00,DRY,5.13,13.03,64.7,778.00,1.2
2020-09-16,21:15:00,DRY,3.60,13.05,64.5,778.00,2.1
2020-09-16,21:20:00,DRY,6.00,13.20,63.3,778.00,1.3
2020-09-16,21:25:00,DRY,4.20,13.10,64.5,778.00,1.1
2020-09-16,21:30:00,DRY,5.00,13.10,64.7,778.00,1.1
2020-09-16,21:35:00,DRY,6.55,13.10,65.0,778.00,1.2
2020-09-16,21:40:00,DRY,5.20,13.10,65.0,778.00,1.6
2020-09-16,21:45:00,DRY,5.95,13.10,65.0,778.00,1.5
2020-09-16,21:50:00,DRY,5.37,13.03,65.0,778.00,1.0
2020-09-16,21:55:00,DRY,5.80,13.00,65.0,778.00,0.9
2020-09-16,22:00:00,DRY,5.87,12.97,65.3,778.00,1.1
2020-09-16,22:05:00,DRY,5.30,13.00,65.0,778.00,1.5
2020-09-16,22:10:00,DRY,5.57,12.90,66.0,778.00,1.3
2020-09-16,22:15:00,DRY,5.75,13.00,65.0,778.00,1.7
2020-09-16,22:20:00,DRY,6.03,12.97,65.7,778.00,1.3
2020-09-16,22:25:00,DRY,6.80,13.05,65.0,778.00,1.4
2020-09-16,22:30:00,DRY,7.07,12.93,66.0,778.00,1.2
2020-09-16,22:35:00,DRY,5.45,12.90,66.0,778.00,1.1
2020-09-16,22:40:00,DRY,6.17,12.87,66.0,778.00,2.1
2020-09-16,22:45:00,DRY,5.85,12.90,66.0,778.00,1.4
2020-09-16,22:50:00,DRY,5.43,12.83,66.0,778.00,1.1
2020-09-16,22:55:00,DRY,7.40,12.85,66.0,778.00,1.2
2020-09-16,23:00:00,DRY,4.00,12.80,66.3,778.00,1.3
2020-09-16,23:05:00,DRY,3.25,12.80,66.0,778.00,1.1
2020-09-16,23:10:00,DRY,3.93,12.80,66.0,778.00,0.6
2020-09-16,23:15:00,DRY,3.25,13.00,64.0,778.00,1.4
2020-09-16,23:20:00,DRY,4.47,12.87,65.7,778.00,1.2
2020-09-16,23:25:00,DRY,3.50,12.80,65.5,778.00,1.3
2020-09-16,23:30:00,DRY,3.80,12.73,66.0,778.00,1.0
2020-09-16,23:35:00,DRY,4.05,12.75,66.0,778.00,1.2
2020-09-16,23:40:00,DRY,2.37,12.83,65.3,778.00,1.0
2020-09-16,23:45:00,DRY,1.90,12.90,65.0,778.00,0.6
2020-09-16,23:50:00,DRY,2.53,12.90,65.0,778.00,1.5
2020-09-16,23:55:00,DRY,4.45,12.85,65.0,777.50,1.4
2020-09-17,00:00:00,DRY,1.93,12.87,65.0,778.00,1.1
2020-09-17,00:05:00,DRY,2.05,12.70,66.0,778.00,2.3
2020-09-17,00:10:00,DRY,2.90,12.83,65.0,777.33,1.4
2020-09-17,00:15:00,DRY,3.10,12.75,65.0,777.00,1.6
2020-09-17,00:20:00,DRY,2.55,12.70,65.0,777.50,1.5
2020-09-17,00:25:00,DRY,2.70,12.70,65.0,777.00,1.9
2020-09-17,00:30:00,DRY,3.13,12.70,65.0,777.00,1.5
2020-09-17,00:35:00,DRY,4.10,12.65,66.0,777.00,1.2
2020-09-17,00:40:00,DRY,1.77,12.63,66.0,777.00,0.8
2020-09-17,00:45:00,DRY,3.35,12.70,65.5,777.00,1.8
2020-09-17,00:50:00,DRY,2.53,12.63,65.7,777.00,1.0
2020-09-17,00:55:00,DRY,5.45,12.70,65.0,777.00,0.8
2020-09-17,01:00:00,DRY,3.23,12.70,65.0,777.00,1.4
2020-09-17,01:05:00,DRY,4.55,12.90,63.0,777.00,1.0
2020-09-17,01:10:00,DRY,3.17,12.97,62.3,777.00,1.3
2020-09-17,01:15:00,DRY,5.65,13.05,61.5,777.00,1.5
2020-09-17,01:20:00,DRY,4.47,13.03,61.7,777.00,1.2
2020-09-17,01:25:00,DRY,3.85,12.85,62.0,777.00,1.7
2020-09-17,01:30:00,DRY,3.33,13.03,61.0,776.33,1.1
2020-09-17,01:35:00,DRY,1.75,13.00,61.0,777.00,1.4
2020-09-17,01:40:00,DRY,3.87,12.73,61.7,776.67,0.9
2020-09-17,01:45:00,DRY,2.95,12.70,62.5,776.00,1.2
2020-09-17,01:50:00,DRY,2.90,12.67,63.0,776.33,1.4
2020-09-17,01:55:00,DRY,4.35,12.55,63.0,776.00,1.4
2020-09-17,02:00:00,DRY,4.10,12.57,62.7,776.00,1.8
2020-09-17,02:05:00,DRY,2.95,12.65,63.0,776.00,1.4
2020-09-17,02:10:00,DRY,3.70,12.53,63.3,776.00,1.4
2020-09-17,02:15:00,DRY,3.40,12.30,64.0,776.00,0.8
2020-09-17,02:20:00,DRY,2.67,12.47,63.0,776.00,1.1
2020-09-17,02:25:00,DRY,2.60,12.50,63.0,776.00,1.0
2020-09-17,02:30:00,DRY,3.70,12.57,62.7,776.00,1.1
2020-09-17,02:35:00,DRY,6.90,12.65,61.5,776.00,0.9
2020-09-17,02:40:00,DRY,5.07,12.60,62.0,776.00,1.2
2020-09-17,02:45:00,DRY,4.10,12.50,62.0,776.00,1.4
2020-09-17,02:50:00,DRY,4.47,12.60,61.3,776.00,1.1
2020-09-17,02:55:00,DRY,5.40,12.60,60.5,776.00,0.9
2020-09-17,03:00:00,DRY,4.67,12.63,59.7,776.00,1.1
2020-09-17,03:05:00,DRY,4.80,12.75,58.5,776.00,1.1
2020-09-17,03:10:00,DRY,5.53,12.80,58.7,776.00,1.2
2020-09-17,03:15:00,DRY,6.20,12.65,59.5,775.00,1.4
2020-09-17,03:20:00,DRY,5.00,12.77,59.3,775.33,1.3
2020-09-17,03:25:00,DRY,7.45,12.70,60.0,775.50,1.0
2020-09-17,03:30:00,DRY,4.97,12.83,59.0,775.33,1.1
2020-09-17,03:35:00,DRY,6.80,12.95,57.5,775.00,1.1
2020-09-17,03:40:00,DRY,6.77,13.03,57.3,775.00,1.1
2020-09-17,03:45:00,DRY,9.30,12.70,59.5,775.00,1.2
2020-09-17,03:50:00,DRY,4.93,12.87,59.0,775.00,1.0
2020-09-17,03:55:00,DRY,6.90,12.90,59.0,775.00,1.1
2020-09-17,04:00:00,DRY,5.77,12.80,60.3,775.00,1.3
2020-09-17,04:05:00,DRY,7.75,12.65,60.5,775.00,0.9
2020-09-17,04:10:00,DRY,5.00,12.80,60.0,775.00,1.0
2020-09-17,04:15:00,DRY,2.80,12.70,61.0,775.00,1.5
2020-09-17,04:20:00,DRY,4.13,12.83,60.3,775.00,1.0
2020-09-17,04:25:00,DRY,4.35,12.65,61.5,775.00,1.3
2020-09-17,04:30:00,DRY,5.67,12.47,62.3,775.00,1.2
2020-09-17,04:35:00,DRY,3.80,12.40,63.0,775.00,1.1
2020-09-17,04:40:00,DRY,3.47,12.40,63.7,775.00,1.2
2020-09-17,04:45:00,DRY,4.45,12.40,63.5,775.00,0.9
2020-09-17,04:50:00,DRY,4.43,12.50,63.3,775.00,0.9
2020-09-17,04:55:00,DRY,4.55,12.60,62.0,775.00,1.2
2020-09-17,05:00:00,DRY,7.60,12.47,62.7,775.00,1.1
2020-09-17,05:05:00,DRY,5.20,12.40,62.5,775.00,0.8
2020-09-17,05:10:00,DRY,6.17,12.47,62.3,775.00,1.3
2020-09-17,05:15:00,DRY,6.55,12.50,62.5,775.00,1.1
2020-09-17,05:20:00,DRY,6.67,12.50,61.7,775.00,1.3
2020-09-17,05:25:00,DRY,7.10,12.60,61.5,775.00,1.2
2020-09-17,05:30:00,DRY,6.40,12.70,60.3,775.00,1.3
2020-09-17,05:35:00,DRY,6.25,12.65,60.5,775.00,1.4
2020-09-17,05:40:00,DRY,6.33,12.70,59.7,775.00,1.3
2020-09-17,05:45:00,DRY,7.50,12.55,61.0,775.00,1.0
2020-09-17,05:50:00,DRY,7.47,12.63,60.3,775.00,1.1
2020-09-17,05:55:00,DRY,5.40,12.60,60.5,775.00,1.2
2020-09-17,06:00:00,DRY,7.50,12.53,60.0,775.00,1.2
2020-09-17,06:05:00,DRY,7.15,12.60,60.5,775.00,1.2
2020-09-17,06:10:00,DRY,8.53,12.60,60.3,775.00,1.2
2020-09-17,06:15:00,DRY,5.75,12.65,60.0,775.00,1.0
2020-09-17,06:20:00,DRY,5.83,12.53,60.3,775.00,1.3
2020-09-17,06:25:00,DRY,4.20,12.35,62.0,775.00,0.9
2020-09-17,06:30:00,DRY,9.80,12.53,61.3,775.00,1.0
2020-09-17,06:35:00,DRY,6.50,12.30,62.0,775.00,0.3
2020-09-17,06:40:00,DRY,5.80,12.40,61.7,775.00,1.1
2020-09-17,06:45:00,DRY,7.85,12.20,62.5,775.00,0.9
2020-09-17,06:50:00,DRY,4.43,12.30,63.3,775.00,3.0
2020-09-17,06:55:00,DRY,5.90,12.35,63.0,775.00,4.1
2020-09-17,07:00:00,DRY,6.53,12.33,64.0,775.00,8.1
2020-09-17,07:05:00,DRY,6.95,12.15,65.0,775.00,15.9
2020-09-17,07:10:00,DRY,5.50,12.13,64.0,775.00,25.4
2020-09-17,07:15:00,DRY,3.80,12.10,64.5,775.00,32.8
2020-09-17,07:20:00,DRY,5.40,12.23,63.7,775.00,39.1
2020-09-17,07:25:00,DRY,7.10,12.10,64.0,775.00,45.2
2020-09-17,07:30:00,DRY,5.20,12.10,64.0,775.00,53.5
2020-09-17,07:35:00,DRY,7.15,12.15,63.0,775.00,59.8
2020-09-17,07:40:00,DRY,5.10,12.30,62.3,775.00,70.7
2020-09-17,07:45:00,DRY,6.05,12.20,63.0,775.50,82.3
2020-09-17,07:50:00,DRY,4.33,12.23,62.3,775.00,91.0
2020-09-17,07:55:00,DRY,5.85,12.40,62.0,775.00,106.2
2020-09-17,08:00:00,DRY,3.97,12.47,61.3,775.67,117.1
2020-09-17,08:05:00,DRY,5.90,12.40,62.0,775.00,168.9
2020-09-17,08:10:00,DRY,3.33,12.43,61.7,775.67,210.9
2020-09-17,08:15:00,DRY,5.65,12.50,61.0,775.50,250.3
2020-09-17,08:20:00,DRY,5.17,12.53,60.3,775.67,271.4
2020-09-17,08:25:00,DRY,4.10,12.65,60.0,776.00,286.1
2020-09-17,08:30:00,DRY,4.90,12.70,60.0,775.67,323.6
2020-09-17,08:35:00,DRY,4.85,12.75,59.5,776.00,373.3
2020-09-17,08:40:00,DRY,3.77,12.87,59.0,776.00,390.9
2020-09-17,08:45:00,DRY,4.80,13.00,59.0,775.50,407.2
2020-09-17,08:50:00,DRY,3.70,13.13,59.0,776.00,415.5
2020-09-17,08:55:00,DRY,5.40,13.05,59.5,776.00,394.4
2020-09-17,09:00:00,DRY,3.33,13.17,58.3,775.67,367.7
2020-09-17,09:05:00,DRY,6.45,13.25,57.5,775.00,379.2
2020-09-17,09:10:00,DRY,6.27,13.30,57.0,775.67,382.0
2020-09-17,09:15:00,DRY,2.95,13.40,57.0,776.00,415.9
2020-09-17,09:20:00,DRY,6.63,13.33,57.7,776.00,366.4
2020-09-17,09:25:00,DRY,2.85,13.30,58.5,776.00,338.1
2020-09-17,09:30:00,DRY,5.30,13.30,57.3,775.67,341.3
2020-09-17,09:35:00,DRY,3.65,13.20,59.5,776.00,379.7
2020-09-17,09:40:00,DRY,5.87,13.37,58.0,776.00,415.3
2020-09-17,09:45:00,DRY,6.90,13.20,59.5,776.00,479.6
2020-09-17,09:50:00,DRY,5.10,13.50,59.0,776.00,411.7
2020-09-17,09:55:00,DRY,5.95,13.60,56.0,775.50,503.8
2020-09-17,10:00:00,DRY,6.67,13.73,56.3,776.00,438.5
2020-09-17,10:05:00,DRY,2.70,13.55,57.0,776.00,397.8
2020-09-17,10:10:00,DRY,7.00,13.60,57.0,776.00,392.9
2020-09-17,10:15:00,DRY,9.00,13.50,57.5,776.00,403.2
2020-09-17,10:20:00,DRY,7.53,13.60,57.3,776.00,466.5
2020-09-17,10:25:00,DRY,7.10,13.75,56.0,776.00,457.1
2020-09-17,10:30:00,DRY,8.53,13.63,56.3,776.00,390.7
2020-09-17,10:35:00,DRY,5.00,13.50,58.0,776.00,397.1
2020-09-17,10:40:00,DRY,6.77,13.57,57.7,776.00,410.9
2020-09-17,10:45:00,DRY,8.30,13.50,58.5,776.00,451.8
2020-09-17,10:50:00,DRY,7.53,13.53,57.3,776.00,416.9
2020-09-17,10:55:00,DRY,6.35,13.50,59.0,776.00,419.9
2020-09-17,11:00:00,DRY,6.20,13.53,59.0,776.00,511.8
2020-09-17,11:05:00,DRY,6.85,13.65,58.0,776.00,619.1
2020-09-17,11:10:00,DRY,7.63,13.83,57.0,776.00,541.9
2020-09-17,11:15:00,DRY,5.55,14.05,56.5,776.00,773.5
2020-09-17,11:20:00,DRY,5.63,14.43,55.7,776.00,882.9
2020-09-17,11:25:00,DRY,6.00,14.65,54.0,776.00,926.5
2020-09-17,11:30:00,DRY,5.10,15.03,52.3,776.00,908.0
2020-09-17,11:35:00,DRY,9.55,15.05,53.5,776.00,928.4
2020-09-17,11:40:00,DRY,5.47,15.30,51.7,776.00,957.0
2020-09-17,11:45:00,DRY,5.05,15.35,53.0,776.00,918.1
2020-09-17,11:50:00,DRY,4.47,15.20,54.3,776.00,964.8
2020-09-17,11:55:00,DRY,6.90,15.25,54.0,776.00,975.1
2020-09-17,12:00:00,DRY,3.77,15.10,54.3,776.00,850.1
2020-09-17,12:05:00,DRY,5.50,15.00,54.5,776.00,969.7
2020-09-17,12:10:00,DRY,7.07,15.00,55.0,776.00,848.0
2020-09-17,12:15:00,DRY,5.55,14.80,56.0,776.00,935.0
2020-09-17,12:20:00,DRY,8.23,15.17,53.3,776.00,920.1
2020-09-17,12:25:00,DRY,5.50,14.95,54.5,776.00,992.7
2020-09-17,12:30:00,DRY,6.53,15.13,53.7,776.00,1017.5
2020-09-17,12:35:00,DRY,5.70,15.30,52.0,776.00,1073.5
2020-09-17,12:40:00,DRY,5.77,15.73,52.7,776.00,1068.3
2020-09-17,12:45:00,DRY,3.45,16.00,51.5,776.00,1111.9
2020-09-17,12:50:00,DRY,4.70,15.43,53.3,776.00,1038.7
2020-09-17,12:55:00,DRY,4.15,15.40,53.5,776.00,1047.8
2020-09-17,13:00:00,DRY,4.83,16.03,52.0,776.00,1059.1
2020-09-17,13:05:00,DRY,4.85,16.05,51.0,775.50,1061.8
2020-09-17,13:10:00,DRY,4.67,15.57,53.0,776.00,1047.0
2020-09-17,13:15:00,DRY,6.10,15.65,51.5,776.00,1027.2
2020-09-17,13:20:00,DRY,5.23,15.67,52.0,776.00,1041.1
2020-09-17,13:25:00,DRY,3.60,16.05,51.5,775.50,1063.0
2020-09-17,13:30:00,DRY,5.10,15.70,51.0,775.00,1138.7
2020-09-17,13:35:00,DRY,3.00,16.00,50.0,776.00,1103.9
2020-09-17,13:40:00,DRY,5.30,15.90,50.7,775.00,1066.0
2020-09-17,13:45:00,DRY,4.20,16.50,49.0,775.50,1129.2
2020-09-17,13:50:00,DRY,5.50,16.13,48.7,775.00,1076.7
2020-09-17,13:55:00,DRY,3.60,15.95,49.5,775.00,1060.7
2020-09-17,14:00:00,DRY,6.33,16.23,48.0,775.00,1112.9
2020-09-17,14:05:00,DRY,7.30,15.95,48.0,775.00,1110.6
2020-09-17,14:10:00,DRY,4.00,16.10,47.3,775.00,1054.2
2020-09-17,14:15:00,DRY,5.30,16.15,48.0,775.00,1017.0
2020-09-17,14:20:00,DRY,6.70,16.13,47.3,775.00,987.4
2020-09-17,14:25:00,DRY,2.35,16.10,47.0,775.00,952.5
2020-09-17,14:30:00,DRY,5.93,15.47,49.0,775.00,965.1
2020-09-17,14:35:00,DRY,2.95,16.10,47.5,775.00,946.1
2020-09-17,14:40:00,DRY,6.70,16.07,46.7,775.00,955.1
2020-09-17,14:45:00,DRY,2.90,16.10,47.0,775.00,928.3
2020-09-17,14:50:00,DRY,5.23,15.87,47.7,775.00,892.1
2020-09-17,14:55:00,DRY,7.15,15.90,46.5,775.00,915.5
2020-09-17,15:00:00,DRY,4.63,16.10,45.7,775.00,904.9
2020-09-17,15:05:00,DRY,8.75,16.30,44.5,775.00,888.1
2020-09-17,15:10:00,DRY,7.93,16.00,44.0,775.00,863.4
2020-09-17,15:15:00,DRY,4.60,15.85,43.5,775.00,837.3
2020-09-17,15:20:00,DRY,6.90,15.67,42.7,775.00,788.8
2020-09-17,15:25:00,DRY,7.15,15.80,42.5,775.00,837.2
2020-09-17,15:30:00,DRY,5.07,15.97,41.7,775.00,832.2
2020-09-17,15:35:00,DRY,7.60,15.85,41.5,775.00,692.0
2020-09-17,15:40:00,DRY,7.33,15.87,41.3,775.00,707.9
2020-09-17,15:45:00,DRY,7.35,15.65,41.5,775.00,742.0
2020-09-17,15:50:00,DRY,4.83,15.53,40.3,775.00,700.4
2020-09-17,15:55:00,DRY,5.85,15.75,40.0,775.00,515.0
2020-09-17,16:00:00,DRY,5.47,15.60,39.7,775.00,625.1
2020-09-17,16:05:00,DRY,7.10,15.65,38.5,775.00,568.6